STARLINK-5586 (55376 NORAD) Tracking and Keplerian Element Data

This shows tracking and keplerian element data for the satellite.

Feedback or suggestion? Click here.




ElementValue
Catalog55376
NameSTARLINK-5586
Epoch Orbit1619
Epoch Day127.00001157
Epoch Year2023
RAAN165.9211
Inclination42.9959
Eccentricity0.0001333
Argument of Perigee262.8665
Mean Anonmoly69.4065
Mean Motion15.06368963
Decay Rate-0.00866096
L11 55376U 23013AX 23127.00001157 -.00866096 00000+0 -62315-1 0 9998
L22 55376 42.9959 165.9211 0001333 262.8665 69.4065 15.06368963 16190



Live tracking and technical data element details for STARLINK-5586 (NORAD 55376). STARLINK-5586 can be tracked NOW for your location showing map with azimuth and elevation plus other details from your city location.







IsCatalogInMostPopularTable: catalog: 55376, numindb: 1
Update: records affected: 1



GetName: 55376 STARLINK-5586

Hit Count: updated at: Mon, 05 Jun 2023 21:14:29 GMT